Miscellaneous Local Product
Issued by NWS Hastings, NE

Home | Current Version | Previous Version | Graphics & Text | Print | Product List | Glossary On
Versions: 1 2 3 4 5 6 7 8 9 10 11 12 13 14 15 16 17 18 19 20 21 22 23 24 25 26 27 28 29 30 31 32 33 34 35 36 37 38 39 40 41 42 43 44 45 46 47 48 49 50
000
AXUS43 KGID 200602
MISGRI

GID CWA HOURLY WEATHER ROUNDUP
NATIONAL WEATHER SERVICE HASTINGS NE
100 AM CDT SAT SEP 20 2014

NOTE: "FAIR" INDICATES FEW OR NO CLOUDS BELOW 12,000 FEET WITH NO
SIGNIFICANT WEATHER AND/OR OBSTRUCTIONS TO VISIBILITY.

...SOUTH CENTRAL NEBRASKA...

CITY           SKY/WX    TMP DP  RH WIND       PRES   REMARKS
GRAND ISLAND   CLEAR     76  61  59 SW21G26   29.84R
HASTINGS       CLEAR     74  58  57 S13       29.86R
KEARNEY        PTCLDY    72  59  64 S14       29.88R
ORD            PTCLDY    74  60  61 SW5       29.84R
YORK           CLEAR     72  64  78 SW13      29.83S
AURORA         CLEAR     73  60  63 SW12      29.84R
LEXINGTON      PTCLDY    75  60  59 SW15G22   29.87R
HOLDREGE       CLEAR     71  58  63 SW10      29.88R
HEBRON         CLEAR     73  63  68 S13G21    29.86F

...NEBRASKA PANHANDLE...

CITY           SKY/WX    TMP DP  RH WIND       PRES   REMARKS
CHADRON        PTCLDY    57  52  83 W6        29.99R
ALLIANCE       PTCLDY    60  51  72 N12       29.98R
SCOTTSBLUFF    CLEAR     61  51  70 N8        30.00R
SIDNEY         MOCLDY    62  55  77 NW9       29.99R

...WESTERN AND NORTH CENTRAL NEBRASKA...

CITY           SKY/WX    TMP DP  RH WIND       PRES   REMARKS
VALENTINE      PTCLDY    60  56  86 CALM      29.91R
AINSWORTH      PTCLDY    62  55  80 CALM      29.90S
ONEILL         PTCLDY    66  61  86 W9        29.87R
BROKEN BOW     MOCLDY    70  61  73 S3        29.87R
IMPERIAL       CLOUDY    73  60  63 S13       29.90S
NORTH PLATTE   MOCLDY    69  60  73 W12       29.92R
MCCOOK         PTCLDY    72  59  63 S10       29.89R

...EASTERN NEBRASKA...

CITY           SKY/WX    TMP DP  RH WIND       PRES   REMARKS
NORFOLK        LGT RAIN  73  66  78 SW9       29.81R
SO SIOUX CITY  TSTM      66  65  96 S12       29.78F
TEKAMAH        MOCLDY    76  69  79 SW9G21    29.78R
ALBION         MOCLDY    74  61  63 W6        29.84R
OMAHA EPPLEY   PTCLDY    74  67  78 S14       29.80F
OFFUTT AFB     CLEAR     72  71  99 S8        29.81F
MILLARD        CLEAR     74  68  82 S7        29.81S
LINCOLN        CLEAR     75  67  76 S17G26    29.81F
NEBRASKA CITY    N/A     69  68  94 S14G21    29.84F
BEATRICE       CLEAR     71  68  89 S14G21    29.85F
FALLS CITY     CLEAR     70  68  93 S16       29.87F

...NORTHERN KANSAS...

CITY           SKY/WX    TMP DP  RH WIND       PRES   REMARKS
GOODLAND       PTCLDY    68  61  78 S14       29.97S
HILL CITY      CLEAR     74  59  59 SW10      29.92R
NORTON         CLEAR     73  55  53 S13G20    29.89
SMITH CENTER   CLEAR     72  61  68 S10       29.89S
BELOIT         CLEAR     70  63  78 S8        29.89S
HAYS           CLEAR     72  59  64 S15       29.93S
RUSSELL        CLEAR     72  61  68 S15       29.92S
CONCORDIA      CLEAR     72  65  78 S20       29.89F
SALINA         CLEAR     73  66  78 S8        29.93S
TOPEKA         CLEAR     71  68  90 S9        29.93F



USA.gov is the U.S. government's official web portal to all federal, state and local government web resources and services.